Temp
62 62 62 62 62 62 63 62 63 64 64 64 64 64 64 64 65 90 99 93 95 86 86 108 108 108 108 104 104 104 88 82 84 83 84 92 90 94 96 93 91 92 90 93 97
62 62 62 62 62 62 62 62 62 63 63 63 64 64 64 64 89 101 87 85 86 86 104 106 103 105 105 102 103 97 88 86 94 94 89 92 91 91 91 90 87 89 93 95 96
62 62 62 62 62 62 62 62 62 62 62 63 63 64 64 70 94 100 83 86 85 87 107 109 108 105 100 103 100 99 87 94 94 96 97 92 91 94 90 88 90 86 88 93 94
62 62 62 62 62 62 62 62 62 62 62 62 64 64 65 90 84 102 86 86 85 101 107 108 106 101 98 94 100 91 95 97 96 96 96 92 93 91 92 90 97 94 94 94 93
61 61 61 61 62 62 62 62 61 61 61 63 64 65 85 94 97 105 90 90 105 109 106 104 102 101 92 98 99 94 95 97 98 97 97 96 92 91 90 96 97 96 94 94 95
61 61 61 61 61 61 61 61 61 61 61 63 65 64 88 87 109 109 108 108 109 108 107 107 102 105 100 98 97 97 96 96 98 97 97 94 92 93 92 97 94 94 93 96 96
61 61 61 61 61 61 61 60 60 60 62 64 66 81 92 95 109 110 109 109 110 109 105 107 108 103 103 98 102 99 93 96 96 96 96 96 88 88 94 96 92 93 95 95 97
61 61 61 60 61 60 60 59 59 61 62 64 66 87 89 109 112 107 110 108 111 112 109 110 110 106 103 103 99 93 94 84 93 95 96 93 81 89 95 94 92 93 95 95 96
61 60 60 60 60 59 58 58 60 62 64 67 82 91 91 94 101 109 111 105 109 109 109 108 107 103 101 95 91 92 78 85 87 95 94 91 85 92 96 95 94 94 94 95 95
60 60 60 60 59 58 58 58 65 65 72 89 92 87 96 96 105 108 112 109 104 105 101 101 101 96 97 94 75 82 85 85 85 91 92 90 88 93 95 96 94 95 95 94 95
60 59 59 59 59 57 65 83 84 84 89 92 94 93 97 103 105 104 109 105 104 100 91 98 92 88 92 92 92 90 87 84 89 93 90 89 90 91 94 96 94 95 95 96 96
59 59 59 59 58 57 67 88 93 94 88 95 96 97 99 103 94 101 109 97 95 89 95 90 86 93 95 93 90 90 86 86 91 93 91 90 89 95 94 95 96 95 96 97 99
58 58 58 58 58 62 86 94 100 99 88 93 97 96 98 101 96 97 103 99 94 90 92 87 93 98 92 91 88 90 88 85 86 91 94 89 85 89 94 96 97 99 100 100 99
58 58 58 57 58 92 89 99 100 98 82 85 90 95 98 100 94 106 106 100 94 89 92 91 97 91 90 88 92 84 93 89 86 85 80 93 72 85 89 91 94 98 99 100 100
58 57 57 52 75 89 96 102 101 95 68 89 93 106 102 96 98 97 107 101 91 91 92 88 91 88 87 90 95 87 93 90 89 86 87 87 81 81 91 87 91 96 98 101 102
57 57 57 65 78 94 99 99 96 76 68 85 93 90 91 95 96 98 97 103 101 93 93 92 99 95 94 97 94 95 91 90 90 88 77 85 85 77 79 88 91 95 98 101 102
55 54 58 80 92 100 98 92 77 73 90 84 86 91 91 90 91 92 89 89 86 80 81 88 89 95 98 90 95 93 88 77 74 75 75 89 84 67 69 91 94 92 95 99 102
53 54 62 80 95 94 93 83 69 85 86 94 92 92 87 92 91 91 88 86 93 92 87 81 78 91 96 92 89 90 89 79 65 71 64 86 77 67 85 94 94 95 96 99 101
54 74 86 92 88 92 87 75 80 85 92 91 92 86 86 90 91 90 89 89 93 94 84 84 82 97 97 98 95 89 83 94 84 80 70 76 85 89 92 91 93 93 94 96 100
78 89 91 96 96 90 82 71 85 91 93 95 84 89 83 86 85 87 87 93 91 96 99 90 80 93 94 97 96 93 96 84 85 64 66 67 57 72 79 83 89 89 90 91 93
76 87 92 97 94 86 78 84 87 93 93 91 89 87 89 87 88 87 87 92 95 94 97 95 82 84 91 88 87 88 86 89 87 77 71 59 60 74 72 85 89 90 91 91 93
88 84 94 97 80 86 84 87 68 92 95 93 93 93 91 90 88 88 87 91 96 96 88 94 88 80 85 94 95 93 89 89 80 75 80 77 76 73 86 92 91 89 91 92 92
85 87 95 94 78 84 89 87 90 90 92 91 90 96 96 91 84 90 90 93 94 94 89 94 86 57 73 88 91 88 90 90 90 89 77 74 69 93 91 89 89 87 88 88 89
87 81 86 88 90 86 86 85 86 92 91 94 93 95 92 90 93 87 88 90 93 94 73 85 90 79 56 58 72 82 85 87 87 80 80 82 78 86 87 85 87 86 86 87 87
88 89 91 80 84 88 88 86 84 85 92 94 89 92 90 85 87 86 91 89 91 76 87 92 82 85 76 71 80 85 84 85 82 84 78 82 83 87 88 88 88 88 87 85 85
81 83 92 89 90 87 73 83 84 87 89 89 89 92 93 85 87 86 90 90 87 90 90 94 80 83 77 86 86 81 85 85 85 84 83 84 82 94 94 94 90 88 85 84 85
86 90 85 75 88 85 86 86 87 87 89 93 94 93 89 90 96 98 100 98 96 90 89 88 86 80 74 84 82 75 82 84 84 86 85 78 83 89 87 88 89 89 87 84 85
MSLP
1016.70 1016.40 1016.11 1015.83 1015.54 1015.29 1015.02 1014.73 1014.37 1013.93 1013.51 1013.01 1012.44 1011.93 1011.30 1010.70 1009.34 1008.22 1006.39 1006.39 1005.74 1005.78 1005.54 1003.71 1002.89 1002.11 1001.79 1000.86 1000.78 1000.40 1000.10 1000.94 1001.64 1002.30 1003.10 1003.41 1003.50 1004.36 1004.38 1004.49 1005.45 1006.21 1006.55 1007.70 1008.52
1016.63 1016.32 1016.06 1015.83 1015.56 1015.26 1014.97 1014.66 1014.29 1013.86 1013.39 1012.94 1012.35 1011.81 1011.27 1010.77 1008.79 1006.16 1006.38 1005.83 1005.73 1005.83 1004.58 1002.86 1001.76 1001.46 1000.31 1000.32 1000.32 999.70 1000.28 1000.98 1001.31 1002.17 1002.78 1003.29 1003.60 1003.97 1003.74 1004.36 1005.56 1006.48 1007.06 1008.07 1008.76
1016.56 1016.30 1016.04 1015.79 1015.53 1015.24 1014.90 1014.58 1014.22 1013.84 1013.37 1012.85 1012.24 1011.63 1011.12 1010.80 1007.61 1005.10 1005.91 1005.83 1005.77 1005.67 1004.42 1002.97 1002.01 1001.00 999.84 999.60 999.93 999.78 1000.51 1000.97 1001.65 1002.03 1002.36 1003.13 1003.53 1003.65 1003.28 1003.80 1004.87 1006.48 1007.44 1008.17 1008.72
1016.46 1016.23 1016.01 1015.70 1015.39 1015.15 1014.86 1014.52 1014.15 1013.84 1013.40 1012.78 1012.20 1011.53 1010.77 1009.33 1005.74 1005.09 1005.67 1005.68 1005.58 1005.09 1003.82 1002.10 1001.02 1000.10 999.35 999.55 1000.07 1000.44 1001.14 1001.10 1001.61 1002.20 1002.15 1002.68 1003.35 1003.84 1004.09 1004.55 1004.76 1006.41 1007.39 1008.08 1008.64
1016.38 1016.12 1015.89 1015.61 1015.25 1014.96 1014.72 1014.43 1014.07 1013.73 1013.37 1012.80 1012.16 1011.60 1009.88 1007.38 1004.65 1004.83 1005.25 1005.29 1004.84 1004.01 1002.79 1001.79 1000.58 999.96 999.88 999.45 1000.06 1000.25 1001.01 1001.28 1001.67 1001.89 1001.97 1002.70 1003.21 1003.53 1004.47 1004.87 1005.59 1006.54 1007.42 1007.91 1008.22
1016.31 1016.01 1015.73 1015.45 1015.14 1014.83 1014.53 1014.24 1013.92 1013.58 1013.21 1012.73 1012.14 1011.58 1009.70 1006.03 1004.07 1004.28 1004.51 1004.25 1003.76 1003.12 1002.22 1001.65 1001.21 1000.78 999.74 999.67 999.70 1000.68 1000.99 1000.99 1001.23 1001.55 1002.02 1002.10 1003.05 1003.17 1004.73 1005.22 1006.05 1006.80 1007.27 1007.50 1007.84
1016.18 1015.86 1015.56 1015.26 1014.95 1014.67 1014.34 1014.04 1013.71 1013.39 1012.98 1012.53 1012.09 1011.13 1007.94 1004.88 1004.12 1004.18 1004.23 1003.60 1003.34 1003.04 1002.09 1001.98 1001.76 1000.92 1000.02 999.72 1000.41 1000.43 1000.32 1000.64 1001.00 1001.20 1001.30 1001.90 1002.61 1003.30 1004.72 1005.26 1006.01 1006.42 1006.73 1007.20 1007.57
1015.97 1015.64 1015.37 1015.07 1014.73 1014.43 1014.13 1013.79 1013.43 1013.06 1012.64 1012.19 1011.90 1010.33 1006.48 1004.08 1004.02 1004.22 1003.99 1003.48 1003.26 1002.98 1002.73 1002.30 1001.89 1000.95 1000.04 1000.11 1000.35 1000.03 999.99 1000.01 1000.99 1001.30 1001.42 1002.15 1002.29 1003.66 1004.66 1005.03 1005.36 1006.03 1006.37 1006.89 1007.41
1015.75 1015.42 1015.11 1014.85 1014.52 1014.19 1013.86 1013.49 1012.98 1012.56 1012.23 1011.78 1010.95 1008.59 1005.02 1004.86 1004.31 1003.74 1003.48 1002.94 1002.64 1002.63 1002.68 1002.71 1001.97 1000.40 1000.19 999.61 999.35 999.64 1000.15 999.83 1000.57 1001.25 1000.97 1001.62 1001.99 1003.29 1004.20 1004.45 1004.75 1005.53 1006.13 1006.59 1007.18
1015.53 1015.21 1014.88 1014.61 1014.34 1013.94 1013.48 1013.15 1012.32 1012.08 1011.53 1010.16 1009.03 1007.45 1004.56 1003.18 1002.94 1002.89 1002.95 1002.80 1002.52 1002.16 1002.37 1002.20 1001.15 1000.03 999.31 998.73 1000.11 999.24 999.16 1000.06 1000.11 1000.99 1001.18 1000.82 1001.37 1002.55 1003.47 1003.61 1004.16 1004.75 1005.46 1006.27 1006.77
1015.36 1015.02 1014.69 1014.38 1014.16 1013.84 1013.01 1011.69 1011.35 1010.01 1008.45 1005.52 1004.78 1004.04 1003.02 1002.86 1003.20 1002.75 1002.69 1002.81 1002.48 1002.17 1001.52 1001.11 1000.19 999.05 998.75 999.50 1000.22 1000.04 999.86 999.95 1000.33 1000.82 1000.91 1000.54 1000.53 1001.71 1002.60 1002.98 1003.50 1004.11 1004.84 1005.44 1005.89
1015.16 1014.81 1014.54 1014.27 1013.99 1013.78 1013.24 1009.11 1006.74 1006.49 1005.00 1004.82 1004.26 1003.63 1003.46 1002.72 1002.47 1002.27 1002.47 1002.34 1002.05 1001.52 1001.19 1000.80 1000.07 999.44 999.96 1000.30 1000.43 1000.03 999.84 999.58 999.92 1000.58 1000.68 1000.25 1000.29 1000.50 1001.88 1002.31 1002.65 1003.54 1003.98 1004.51 1005.01
1014.99 1014.59 1014.28 1014.11 1013.83 1013.32 1010.13 1007.33 1006.90 1006.29 1004.25 1003.14 1003.07 1002.66 1002.40 1002.68 1001.52 1001.57 1002.18 1001.82 1001.35 1001.09 1000.30 999.88 999.39 999.45 1000.22 1000.15 1000.32 999.81 999.26 999.61 999.60 999.95 1000.29 1000.30 1000.23 1000.49 1001.14 1001.73 1002.24 1002.83 1003.12 1003.50 1004.26
1014.80 1014.41 1014.14 1013.92 1013.90 1009.21 1008.20 1007.03 1006.85 1006.59 1003.41 1002.07 1002.08 1001.77 1001.97 1001.67 1000.83 1000.86 1001.68 1001.43 1001.04 1000.53 1000.28 1000.05 999.53 1000.01 1000.10 1000.14 999.66 999.02 999.49 1000.00 1000.16 999.90 998.81 999.43 999.84 1000.45 1001.09 1001.35 1001.94 1002.12 1002.49 1002.77 1003.69
1014.54 1014.24 1014.01 1014.30 1011.66 1008.20 1006.78 1006.81 1006.55 1006.38 1001.67 1000.77 1000.67 1001.02 1000.86 1000.76 1000.19 1001.01 1001.42 1001.28 1000.68 1000.51 1000.41 999.99 999.78 999.99 999.91 999.64 999.34 999.31 999.97 999.96 999.97 999.47 998.57 998.64 999.13 1000.29 1000.79 1001.07 1001.45 1001.79 1002.11 1002.24 1003.05
1014.18 1013.95 1013.82 1012.81 1011.12 1007.64 1007.30 1006.93 1006.41 1004.35 999.84 999.47 1000.12 1000.50 1000.38 1000.17 1000.04 1000.80 1001.24 1001.15 1000.23 1000.18 1000.48 999.73 999.85 999.95 999.55 999.17 999.80 999.83 999.89 999.79 999.76 999.40 998.35 998.19 998.85 1000.61 1001.85 1000.65 1001.14 1001.45 1001.65 1001.81 1002.32
1013.62 1013.42 1013.38 1010.49 1007.58 1007.32 1007.22 1006.38 1004.12 1000.73 998.97 998.94 999.22 999.58 999.45 999.29 999.72 1000.47 1000.69 1000.65 1000.09 999.93 999.74 999.90 999.84 999.83 999.37 999.23 999.64 999.86 999.30 998.29 998.16 997.91 997.68 997.91 999.15 1001.98 1002.97 1001.20 1000.93 1001.79 1002.02 1002.06 1002.19
1012.91 1012.76 1011.43 1009.86 1008.05 1007.88 1006.91 1005.18 1001.47 998.54 997.71 998.00 998.26 998.73 998.51 998.69 999.10 999.78 999.91 999.67 999.64 998.92 998.17 998.60 998.94 999.21 999.36 999.14 998.52 998.54 998.50 997.35 997.66 998.02 1000.59 999.30 999.64 1002.22 1002.27 1001.52 1001.95 1002.18 1002.24 1002.04 1002.31
1012.75 1011.10 1009.16 1007.84 1008.77 1007.94 1005.89 1002.73 999.38 997.74 996.91 997.08 997.61 997.78 997.80 998.32 998.32 998.84 998.90 998.65 998.56 999.00 997.86 997.21 997.51 997.98 998.51 998.68 999.09 998.34 998.43 997.84 997.37 998.78 1000.63 1000.70 999.88 1001.47 1001.72 1001.90 1002.33 1002.60 1002.73 1002.58 1002.57
1011.04 1008.18 1006.80 1007.07 1007.57 1007.11 1004.79 1000.93 998.71 998.47 997.38 996.92 996.82 997.07 996.98 997.70 998.22 998.22 998.20 998.10 998.04 998.61 998.03 997.57 997.42 997.91 998.40 999.10 998.92 998.43 998.15 997.73 997.86 998.90 999.61 1001.92 1002.76 1000.73 1001.76 1002.23 1002.46 1003.05 1003.45 1004.01 1004.40
1010.66 1006.25 1006.41 1006.90 1007.13 1005.59 1002.68 1000.07 999.44 998.97 998.71 997.02 996.35 996.65 996.51 997.12 997.60 997.56 997.79 998.14 998.20 998.67 998.80 998.03 998.96 998.70 999.04 998.65 998.02 998.60 998.35 997.93 998.35 999.78 999.67 1001.71 1003.16 1002.15 999.16 1000.08 1001.65 1003.02 1004.01 1004.61 1004.97
1008.11 1004.83 1006.16 1006.47 1005.57 1003.57 1001.16 999.89 1000.39 998.94 998.84 997.61 996.99 996.30 996.18 996.79 996.99 996.97 997.36 997.88 998.97 998.73 999.12 998.92 998.53 999.00 998.50 998.77 998.95 998.43 998.03 998.20 997.53 998.56 999.20 1000.45 1000.74 1000.48 998.52 1001.26 1001.45 1003.49 1004.34 1005.05 1005.72
1006.78 1005.23 1005.97 1005.57 1003.22 1001.59 1000.35 1000.12 999.94 998.78 998.14 997.89 997.22 996.20 996.20 996.66 997.06 996.80 997.77 999.38 999.77 999.44 999.49 999.21 999.12 1001.32 1000.32 999.57 999.57 999.12 998.71 998.93 998.79 998.66 999.16 999.77 1001.21 1000.57 1000.81 1001.88 1003.49 1004.34 1005.28 1006.09 1006.69
1006.56 1004.02 1004.95 1004.80 1002.94 1001.10 1000.03 999.76 999.22 999.30 998.42 997.78 996.93 996.75 996.65 996.71 997.06 997.39 998.04 999.76 1000.18 999.96 1000.79 1000.56 999.31 999.55 1002.48 1004.03 1002.44 999.78 999.84 999.76 999.72 999.31 998.95 998.79 999.96 1000.53 1001.52 1002.73 1004.14 1005.24 1006.13 1006.86 1007.46
1006.15 1002.38 1002.21 1002.59 1002.00 1000.87 1000.29 999.69 999.41 998.55 998.71 998.37 997.72 997.09 996.81 996.79 997.04 997.38 997.92 999.72 1000.34 1001.10 1000.97 1000.57 999.89 1000.16 1002.26 1003.08 1002.25 1000.66 1000.22 1000.09 1000.04 1000.27 1000.32 999.94 999.59 999.79 1000.97 1002.40 1003.84 1005.47 1006.70 1007.59 1008.11
1006.65 1004.41 1002.92 1001.49 1001.09 1000.93 1000.73 1000.09 999.49 998.58 998.34 998.02 997.48 997.13 996.61 996.67 996.72 996.50 997.41 998.61 999.41 1000.67 1000.43 1000.04 1000.38 1001.02 1001.48 1000.78 1000.98 1000.99 1000.65 1000.47 1000.42 1000.53 1000.88 1000.93 1000.72 1000.68 1001.10 1002.15 1003.46 1004.98 1006.81 1007.78 1008.29
1008.01 1005.98 1004.75 1002.16 1001.01 1000.75 999.89 999.67 999.43 999.58 999.36 998.28 997.13 997.29 997.27 997.14 996.73 996.56 997.30 998.14 998.72 999.67 999.88 1000.01 999.92 1000.60 1000.79 1000.68 1000.58 1000.68 1000.32 1000.33 1000.35 1000.98 1001.25 1001.34 1001.74 1002.14 1002.36 1003.03 1003.77 1004.79 1006.38 1007.65 1008.32
Wind_Speed
11 11 11 12 12 12 12 13 14 14 15 17 18 17 18 18 23 8 6 5 5 4 9 15 10 6 10 5 4 5 7 8 13 10 11 5 12 9 1 8 9 3 12 21 19
11 11 12 12 12 12 12 13 14 15 16 17 18 18 17 17 14 15 4 5 2 4 13 9 8 5 7 5 2 3 11 10 13 14 12 9 11 5 6 11 10 8 16 20 20
11 11 12 12 12 12 13 13 14 15 16 17 18 18 18 17 14 9 4 4 4 9 14 13 9 14 6 5 0 10 8 13 15 10 13 8 12 3 3 9 16 12 16 18 19
12 12 12 13 13 13 12 13 13 14 15 17 18 19 20 10 5 10 4 1 6 11 13 12 10 15 6 6 4 13 6 11 12 2 8 11 3 13 12 7 15 16 17 16 18
12 12 12 13 13 13 13 13 13 14 15 16 17 17 12 12 9 11 5 9 10 11 11 8 11 7 3 6 8 10 9 5 5 5 7 5 8 9 10 11 16 18 16 17 16
12 13 13 13 13 13 13 13 13 14 14 15 16 20 11 16 6 3 3 6 9 9 6 7 6 10 3 3 5 5 4 3 3 8 9 7 8 10 10 13 16 16 15 15 17
13 13 14 14 14 13 13 13 14 14 14 14 13 8 12 14 4 3 7 8 4 7 10 2 8 13 3 10 3 6 10 9 5 4 11 2 10 18 13 14 16 16 15 14 14
14 14 14 14 14 13 13 14 15 15 15 14 11 11 11 3 7 8 10 11 9 8 8 6 9 14 13 6 8 8 9 10 10 3 7 1 12 14 14 13 16 15 13 13 13
14 13 14 14 13 13 12 15 17 15 12 11 10 10 13 5 12 14 14 12 11 8 6 6 13 14 7 15 13 8 7 8 11 2 2 2 13 14 15 12 14 14 15 12 12
14 15 12 13 12 12 14 15 7 7 9 9 9 8 10 13 14 11 13 11 9 10 9 11 15 14 12 12 5 6 6 6 5 10 5 6 16 16 15 14 13 14 15 13 13
14 13 11 12 11 11 15 6 8 9 14 10 5 10 7 5 3 12 13 12 10 10 15 16 14 14 9 20 2 3 7 0 5 5 4 7 9 16 16 14 15 13 14 14 14
14 12 10 12 9 9 9 9 9 8 8 18 9 9 5 7 13 16 14 13 13 15 19 14 14 11 3 4 5 6 6 10 9 3 7 5 7 16 17 13 17 14 15 14 14
15 13 10 10 7 6 12 10 6 7 10 14 13 12 12 12 14 17 15 15 12 17 20 16 16 10 5 8 10 12 12 4 7 9 11 7 12 10 7 14 13 17 15 15 14
14 12 8 6 5 6 12 12 7 5 9 14 13 10 7 12 10 16 17 13 11 15 11 16 13 4 7 12 14 10 3 1 4 11 14 18 3 9 14 14 16 16 15 17 15
14 10 6 8 12 8 9 4 6 6 8 19 16 12 14 16 17 11 16 12 13 13 7 14 16 7 15 15 14 3 3 1 8 12 13 14 10 4 14 15 17 16 15 13 16
14 9 6 7 8 9 4 4 7 10 5 11 12 15 16 14 14 15 12 12 6 10 13 9 8 14 17 11 3 6 8 10 12 13 14 14 15 15 3 16 14 8 10 14 18
13 8 9 9 1 2 5 8 9 13 18 15 20 20 19 13 12 17 17 15 11 12 12 10 11 10 10 6 10 10 15 12 13 13 11 3 8 11 17 6 13 9 10 13 13
10 5 14 10 4 7 7 11 12 13 14 18 17 20 16 14 15 17 15 15 17 15 10 13 17 18 13 15 12 14 16 14 6 5 11 14 8 5 23 11 9 7 7 10 18
4 7 8 8 11 6 9 13 9 5 8 19 19 19 16 16 8 14 14 16 16 13 17 12 11 21 12 12 14 14 7 19 16 13 10 12 16 16 15 15 13 13 10 10 10
7 7 7 8 9 8 10 18 3 9 9 15 15 16 16 17 10 12 14 14 8 12 17 2 7 12 10 10 10 18 11 14 10 1 12 9 3 11 9 11 14 13 13 12 9
8 7 8 9 7 9 11 11 1 4 8 10 15 15 12 15 15 14 12 9 7 11 8 13 13 6 10 13 16 10 11 12 1 7 10 4 8 10 24 20 15 14 14 15 15
10 4 8 9 9 10 15 3 3 11 12 8 10 13 12 16 15 13 15 9 3 2 10 14 5 11 17 8 3 9 10 13 8 7 13 11 6 5 6 16 17 14 14 13 14
7 7 8 9 9 11 11 6 7 7 12 11 9 10 9 12 8 7 13 7 5 8 5 6 4 6 21 14 6 10 5 7 12 14 11 9 5 11 10 12 12 14 14 13 14
8 6 7 9 14 14 13 12 9 6 4 7 6 4 8 13 7 6 12 5 4 2 8 6 17 7 10 9 20 6 7 4 11 10 14 12 9 10 13 12 12 12 12 12 11
7 1 8 11 13 11 1 1 10 9 7 11 7 13 13 9 12 9 13 10 8 4 5 9 15 9 24 32 28 11 9 10 10 11 14 18 19 4 13 11 14 13 12 11 11
7 6 4 6 8 12 7 8 12 5 5 14 11 15 12 9 4 13 12 11 9 10 10 9 9 4 14 8 10 12 12 14 16 12 14 15 15 15 5 5 13 15 12 10 10
8 6 7 6 10 11 12 8 8 1 3 8 8 9 7 8 11 14 10 7 5 4 9 10 9 4 12 13 7 12 13 10 5 9 10 10 9 10 3 1 7 11 13 10 8
Wind_Direction
337 334 333 332 331 330 331 330 327 326 325 321 320 319 317 318 305 225 262 4 335 323 305 265 226 244 225 131 258 241 107 95 66 90 105 169 92 63 90 117 65 58 131 147 146
337 333 332 330 328 327 326 326 325 325 324 322 319 317 317 323 293 267 32 20 250 298 279 320 332 244 194 135 298 156 74 61 88 93 98 79 70 103 130 133 122 105 103 144 155
334 331 329 328 324 324 322 322 321 322 321 320 318 315 314 314 275 101 58 40 270 273 269 292 277 266 138 170 312 66 97 109 74 61 90 113 90 41 42 49 138 143 138 149 157
333 329 327 324 322 321 320 319 318 319 318 318 317 315 313 272 272 82 95 172 258 274 272 272 245 243 159 133 125 108 72 73 105 141 113 75 136 70 46 39 111 134 147 150 159
332 328 325 322 319 316 317 315 314 314 314 314 315 318 310 236 248 127 205 186 244 251 265 316 299 284 295 102 126 91 102 149 86 142 84 126 62 84 76 94 113 139 143 153 160
334 327 323 320 317 315 313 312 310 308 308 309 312 313 246 261 54 111 288 253 254 257 264 300 350 328 347 72 77 90 91 103 152 120 117 136 129 129 105 108 127 136 148 161 150
335 328 322 318 316 315 312 308 304 301 299 300 305 296 265 254 28 249 240 262 274 280 288 2 325 278 293 149 152 152 187 164 93 136 132 87 134 102 127 129 138 147 154 153 155
333 328 323 317 314 312 308 303 296 291 290 283 286 268 265 232 310 246 238 242 236 253 266 313 297 283 278 95 196 232 233 148 106 179 119 334 106 131 148 147 146 150 153 156 154
333 325 323 318 313 308 301 296 288 278 262 270 250 230 254 115 222 223 220 231 206 221 234 288 267 277 184 224 188 204 247 85 130 203 124 235 121 146 161 171 145 159 156 171 167
329 330 318 317 312 306 301 287 307 249 222 221 267 254 237 221 195 198 205 248 230 210 218 233 241 231 231 228 34 300 118 167 114 136 223 221 133 150 174 185 160 160 159 174 173
329 322 316 316 310 310 304 199 204 193 214 234 191 242 132 135 140 210 190 208 221 230 224 200 238 234 226 110 244 356 296 20 135 103 254 254 154 158 166 190 158 175 163 171 179
326 321 315 312 304 310 281 252 24 350 238 218 244 258 261 261 182 197 188 209 206 222 229 237 238 273 73 23 271 268 231 220 144 160 263 166 249 144 163 192 167 189 169 168 179
323 319 309 304 308 254 236 247 335 313 255 165 206 215 196 201 194 181 197 213 209 227 228 250 216 206 198 214 244 228 254 31 320 183 219 238 231 156 185 173 188 178 183 171 175
322 324 319 317 274 203 223 221 241 292 261 143 186 205 184 221 211 184 197 214 225 237 220 231 250 224 207 241 240 283 67 332 251 257 233 205 142 204 164 173 181 188 195 176 168
318 313 300 255 322 224 53 217 255 238 244 151 151 125 169 213 136 185 198 203 237 221 228 218 236 191 233 228 234 77 336 224 275 273 269 204 208 232 158 162 176 190 181 199 175
312 292 282 202 228 291 264 257 236 232 183 148 143 178 177 216 188 151 177 230 275 206 224 280 209 212 214 211 239 4 258 221 229 245 257 234 231 188 301 151 158 163 181 193 178
305 262 228 318 324 149 246 226 219 248 139 151 166 173 192 173 158 172 186 200 193 202 195 211 192 226 272 196 186 232 250 243 220 213 237 302 227 135 263 163 149 163 189 203 200
307 219 200 260 303 267 225 229 249 230 190 153 177 176 199 171 173 184 190 203 230 233 204 206 181 209 183 248 251 210 237 261 263 282 330 190 189 126 212 128 132 143 148 184 189
302 200 214 195 219 256 233 230 214 182 144 171 168 182 200 176 184 200 208 218 190 224 261 183 238 179 207 195 238 256 257 276 301 151 215 262 111 132 137 135 138 127 129 140 162
268 203 155 144 175 226 240 249 331 341 319 179 184 193 187 183 210 203 188 204 195 196 262 257 219 171 173 232 243 267 322 223 243 46 296 48 212 117 111 138 135 137 128 123 120
245 219 111 167 200 226 232 227 255 188 255 242 198 197 189 183 210 211 183 147 184 175 237 266 119 221 172 209 180 193 234 248 167 314 271 66 301 159 161 185 149 133 137 142 142
270 208 142 174 212 225 230 194 18 242 200 269 296 190 215 177 207 213 161 152 81 208 204 247 47 216 200 122 283 299 330 286 292 214 330 308 196 15 304 130 123 130 132 122 120
254 108 162 214 229 203 240 208 239 224 195 200 227 247 216 170 213 196 101 87 176 229 331 257 243 58 297 172 179 249 193 279 304 306 296 273 111 170 95 96 126 130 121 126 128
277 152 154 211 269 283 203 218 202 216 299 267 240 226 197 188 200 196 116 141 173 329 348 310 276 242 124 299 287 230 210 263 300 294 307 289 116 154 141 145 144 135 141 138 130
248 54 157 187 228 249 225 300 219 170 234 213 215 210 198 186 199 184 137 135 172 145 221 255 276 324 156 180 223 289 305 298 284 299 293 304 307 73 153 168 157 148 148 152 159
312 335 207 311 194 208 160 209 235 157 244 184 224 226 203 209 195 170 154 181 164 177 232 239 258 262 294 264 221 283 290 291 281 267 278 281 286 293 19 142 168 160 160 180 175
356 283 275 148 207 212 202 236 211 54 195 319 201 201 107 29 35 32 27 12 101 227 219 270 283 215 269 289 285 273 274 306 329 314 300 279 25 4 345 275 198 171 164 192 164